Weather History for Ishigakijima, Japan

Change the Weather History Date:

Friday, December 7, 2012

  Actual Average Record
Temperature  
Mean Temperature 68 °F -  
Max Temperature 73 °F 69 °F 82 °F (2006)
Min Temperature 63 °F 62 °F 57 °F (1996)
Cooling Degree Days 2    
Growing Degree Days 18 (Base 50)    
Moisture  
Dew Point 59 °F    
Average Humidity 67    
Maximum Humidity 83    
Minimum Humidity 48    
Precipitation  
Precipitation 0.00 in - - ()
Sea Level Pressure  
Sea Level Pressure 30.08 in    
Wind  
Wind Speed 8 mph ()    
Max Wind Speed 12 mph    
Max Gust Speed -    
Visibility 8.0 miles    
Events Rain    
Averages and records for this station are not official NWS values.
T = Trace of Precipitation, MM = Missing Value Source: Averaged Metar Reports

Daily Weather History Graph

Daily Weather History Graph

Search for Another Location

Airport:

Trip Planner

Search our weather history database for the weather conditions in past years. The results will help you decide how hot, cold, wet, or windy it might be!

Date:

Astronomy

Dec. 07, 2012 Rise Set
Actual Time 7:14 AM JST 5:55 PM JST
Civil Twilight 6:49 AM JST 6:20 PM JST
Nautical Twilight 6:21 AM JST 6:48 PM JST
Astronomical Twilight 5:53 AM JST 7:16 PM JST
Moon 12:35 AM JST (12/7) 12:58 PM JST (12/7)
Length of Visible Light 11h 30m
Length of Day
10h 41m
Last Quarter, 45% of the Moon is Illuminated
Dec 7
Last Quarter
Dec 13
New
Dec 20
First Quarter
Dec 28
Full
Jan 5
Last Quarter

Hourly Weather History & Observations

Time (JST) Temp. Dew Point Humidity Pressure Visibility Wind Dir Wind Speed Gust Speed Precip Events Conditions
12:00 AM 65 °F 50 °F 48% 30.13 in - ENE 10.4 mph - -  
3:00 AM 65 °F 54 °F 60% 30.10 in 9 mi ENE 10.4 mph - - Rain Light Rain
6:00 AM 66 °F 55 °F 59% 30.09 in 9 mi ENE 9.2 mph - - Rain Light Rain
6:00 AM 64.4 °F 55.4 °F 73% 30.06 in 6.2 mi NE 8.1 mph - N/A   Mostly Cloudy
7:00 AM 64.4 °F 55.4 °F 73% 30.09 in 6.2 mi NE 6.9 mph - N/A   Mostly Cloudy
8:00 AM 66.2 °F 57.2 °F 73% 30.09 in 6.2 mi ENE 5.8 mph - N/A   Scattered Clouds
9:00 AM 70 °F 58 °F 56% 30.14 in 12 mi East 10.4 mph - -   Partly Cloudy
9:00 AM 69.8 °F 57.2 °F 64% 30.12 in 6.2 mi ENE 10.4 mph - N/A   Scattered Clouds
10:00 AM 69.8 °F 59.0 °F 68% 30.12 in 6.2 mi East 10.4 mph - N/A   Mostly Cloudy
11:00 AM 71.6 °F 59.0 °F 64% 30.09 in 6.2 mi East 11.5 mph - N/A   Scattered Clouds
12:00 PM 71 °F 59 °F 58% 30.12 in 12 mi East 9.2 mph - -   Mostly Cloudy
12:00 PM 69.8 °F 59.0 °F 68% 30.09 in 6.2 mi ENE 9.2 mph - N/A   Scattered Clouds
1:00 PM 71.6 °F 60.8 °F 69% 30.06 in 6.2 mi ENE 8.1 mph - N/A   Mostly Cloudy
2:00 PM 71.6 °F 60.8 °F 69% 30.04 in 6.2 mi ENE 9.2 mph - N/A   Mostly Cloudy
3:00 PM 72 °F 61 °F 60% 30.04 in 12 mi ENE 11.5 mph - -   Scattered Clouds
3:00 PM 71.6 °F 60.8 °F 69% 30.04 in 6.2 mi ENE 9.2 mph - N/A   Mostly Cloudy
4:00 PM 71.6 °F 60.8 °F 69% 30.04 in 6.2 mi ENE 9.2 mph - N/A   Mostly Cloudy
5:00 PM 69.8 °F 60.8 °F 73% 30.04 in 6.2 mi NE 8.1 mph - N/A   Mostly Cloudy
6:00 PM 70 °F 61 °F 67% 30.06 in 16 mi ENE 9.2 mph - - Rain Light Rain
6:00 PM 69.8 °F 60.8 °F 73% 30.04 in 6.2 mi ENE 9.2 mph - N/A   Scattered Clouds
7:00 PM 68.0 °F 62.6 °F 83% 30.06 in 6.2 mi ENE 9.2 mph - N/A   Scattered Clouds
8:00 PM 69.8 °F 60.8 °F 73% 30.09 in 6.2 mi ENE 9.2 mph - N/A   Partly Cloudy
9:00 PM 69 °F 61 °F 70% 30.11 in 12 mi ENE 8.1 mph - -   Partly Cloudy